Theta_e
313 313 313 313 313 312 311 311 310 309 309 308 305 309 304 301 299 308 311 310 307 301 296 298 296 294 296 299 297 298 295 294 295 294 296 293 296 295 294 293 293 295 294 293 292 294 291 293 293 296 297 300 304 306 307 307 307 307 306 308 310 317 307 303 304 309 312 312 313 313 314 313 309 309 310 309 306 306 305 304 306 303 304 301 301 301 306
313 313 313 313 312 311 311 310 311 310 309 309 308 305 302 302 302 303 309 310 307 298 291 291 293 294 297 297 295 298 296 295 294 294 294 293 293 292 293 294 296 293 296 294 291 294 288 295 295 295 298 296 304 303 304 307 304 304 303 301 308 303 308 304 301 302 305 306 308 309 312 311 308 307 308 309 310 310 309 309 310 303 304 303 300 296 304
313 312 313 312 312 311 310 310 311 311 310 310 308 301 304 303 305 303 304 308 305 296 297 294 293 293 293 294 292 294 294 297 297 296 294 295 294 293 292 294 295 294 296 294 295 295 293 291 296 296 296 296 302 303 303 305 304 307 308 311 310 303 304 305 298 296 295 295 295 298 301 304 308 310 308 309 308 308 306 302 306 299 309 309 302 302 310
313 312 313 312 312 311 310 311 311 311 311 309 308 305 303 300 292 299 300 304 302 301 301 298 295 293 293 292 293 294 292 296 298 297 296 297 297 295 294 295 296 294 294 293 292 292 295 292 292 293 292 297 299 302 303 304 305 310 313 312 309 303 305 305 304 303 302 307 309 309 310 307 303 306 307 307 308 309 309 308 304 300 307 306 310 310 310
313 312 312 312 312 311 311 311 311 311 310 310 308 306 304 303 294 295 292 299 299 297 298 297 297 293 295 290 294 292 293 294 295 299 293 297 295 295 294 295 292 293 293 292 292 293 292 295 294 293 292 296 298 302 302 304 308 312 310 311 306 305 302 304 307 306 306 308 311 311 311 307 307 306 306 308 307 308 307 304 302 316 306 301 313 323 310
312 312 312 312 311 311 311 311 311 311 310 309 310 301 304 294 297 299 300 293 291 292 293 297 295 297 297 293 296 293 292 293 291 295 297 296 298 293 295 295 296 294 292 292 290 292 291 292 290 293 293 294 297 297 302 301 307 307 304 309 305 302 299 304 306 306 308 309 309 311 311 310 309 307 307 306 307 307 305 307 308 311 305 304 316 319 314
312 312 312 312 311 311 312 312 311 311 309 309 308 298 301 300 300 299 302 294 296 296 296 296 296 295 296 294 295 291 291 291 293 293 294 295 294 295 290 292 294 295 295 293 290 292 288 288 292 291 291 292 293 293 296 300 302 301 303 305 308 303 301 304 306 305 306 308 309 310 309 310 309 308 308 308 308 307 307 307 309 309 314 313 314 320 313
312 312 312 312 312 312 312 311 311 311 309 309 304 301 295 295 294 293 298 299 296 297 296 295 295 293 296 292 293 292 292 291 293 296 294 291 292 296 292 293 295 295 294 293 290 292 293 291 288 292 292 292 293 292 294 294 299 300 298 301 305 302 301 305 304 302 303 306 309 309 310 309 307 309 309 308 308 308 308 308 308 310 309 310 310 316 314
312 312 312 312 312 312 312 312 312 311 310 306 303 300 302 301 302 302 294 290 295 296 296 294 294 292 294 291 293 293 293 291 294 293 297 295 292 293 292 295 294 295 294 293 293 295 295 295 295 296 294 290 295 291 292 296 293 297 297 299 300 301 299 303 303 299 300 305 306 307 309 308 308 308 309 309 308 306 307 306 309 308 308 311 310 312 310
312 312 312 312 312 312 311 311 311 311 310 306 304 298 303 303 304 303 298 290 296 293 296 296 293 289 294 294 294 292 294 296 295 292 296 296 298 296 295 295 294 293 293 293 294 297 298 298 298 298 298 298 297 297 296 296 295 295 296 299 297 299 299 298 300 297 299 304 306 305 307 307 303 304 307 308 310 310 310 310 311 310 311 308 306 309 317
312 312 312 312 312 312 312 312 312 312 310 304 301 300 302 300 297 298 297 289 293 295 295 294 292 293 295 296 295 296 295 295 295 289 290 296 296 299 298 295 292 291 293 296 301 301 300 300 300 300 299 298 297 297 297 298 298 297 296 296 298 299 299 297 300 295 298 303 304 306 303 296 298 310 313 312 309 309 308 308 310 311 312 310 313 315 322
312 312 312 312 312 312 312 312 312 311 310 309 308 302 305 307 302 299 292 286 289 295 294 292 293 293 294 294 294 294 294 294 295 296 292 294 297 298 297 296 295 290 298 302 302 302 301 301 300 300 299 298 297 297 297 295 296 300 299 297 296 296 297 296 300 296 297 301 302 298 294 296 309 313 314 314 313 313 311 312 312 312 313 313 313 315 318
312 312 312 312 312 312 312 312 312 311 310 311 308 302 307 309 301 296 294 289 287 292 290 292 296 296 296 295 294 294 296 295 296 296 296 295 295 297 298 296 294 297 302 301 301 300 296 293 294 295 295 296 297 297 296 295 295 298 299 300 297 295 296 297 297 299 300 299 298 291 294 307 310 312 314 315 314 313 312 309 313 314 313 314 313 316 317
312 312 312 312 312 312 312 312 312 312 310 310 307 305 308 305 299 297 295 289 289 293 295 293 294 294 295 295 296 295 297 295 297 298 293 296 296 295 298 299 299 302 302 302 299 297 292 294 289 289 290 293 293 291 294 296 297 296 297 299 300 298 297 297 293 299 294 297 297 297 305 304 306 308 311 312 310 311 309 305 310 314 316 316 316 317 318
312 312 312 312 312 312 312 312 312 312 312 310 309 307 306 307 304 300 300 295 286 292 294 289 293 295 295 297 298 294 294 296 292 293 298 299 297 298 301 302 303 303 303 300 296 296 292 291 287 285 288 287 283 286 294 292 297 298 298 298 300 300 295 298 294 295 299 295 294 296 297 295 302 309 313 315 315 315 315 311 308 315 316 317 316 316 317
312 312 312 312 313 313 313 312 312 312 311 309 309 307 307 309 309 305 300 294 291 285 292 298 299 297 295 295 298 294 293 292 293 293 294 295 296 298 300 302 301 302 301 299 298 295 292 287 285 285 283 286 290 289 288 293 292 297 298 298 298 299 300 298 295 294 296 295 292 293 294 299 308 308 312 315 317 315 317 311 305 315 316 316 316 315 316
312 312 312 312 313 313 313 313 313 312 312 309 309 309 306 311 307 303 299 297 294 289 299 300 300 298 296 296 297 295 297 293 294 290 289 292 295 296 300 304 304 303 300 297 297 292 288 288 289 287 288 291 288 288 292 292 291 292 296 297 295 294 295 296 293 292 293 294 293 292 300 300 307 309 311 314 318 317 314 301 302 321 325 326 322 315 318
312 313 313 313 313 313 313 313 313 313 311 311 310 307 307 312 311 309 302 297 292 293 298 301 299 296 295 297 295 299 301 299 296 297 294 296 296 297 295 298 298 302 301 293 293 290 289 288 285 285 284 292 293 293 285 291 290 291 291 291 291 291 293 294 291 292 293 293 293 297 301 308 310 312 314 315 316 314 303 297 312 321 326 327 328 326 327
312 312 313 313 313 313 313 313 313 313 313 310 311 309 309 312 310 309 303 299 295 290 299 304 304 300 302 304 301 302 301 299 298 294 293 292 295 298 298 299 300 293 299 292 292 289 288 289 293 290 286 289 292 287 294 291 290 294 295 291 291 292 292 293 294 292 291 294 292 294 300 307 311 314 315 315 310 301 302 318 325 322 323 328 329 327 327
312 312 313 313 313 313 313 313 313 313 313 311 309 305 308 312 312 309 302 297 298 295 299 301 303 300 303 300 298 297 299 299 299 295 294 290 298 299 295 291 299 297 294 296 287 292 288 285 288 292 288 290 292 296 292 293 297 294 293 296 292 292 290 288 289 294 294 295 292 291 288 304 312 313 312 314 305 311 318 319 322 321 323 325 327 327 326
312 312 313 313 313 313 313 313 313 313 313 312 309 307 305 312 312 312 310 304 298 293 296 304 304 302 303 303 304 303 301 297 297 294 296 296 300 296 286 288 294 294 290 293 288 288 291 287 288 289 294 292 293 292 288 290 293 300 297 295 294 299 291 291 292 296 290 291 290 291 300 307 310 308 305 310 311 314 318 318 317 321 322 323 325 327 328
312 313 313 313 313 313 313 313 313 312 313 313 310 309 304 309 312 313 312 309 301 297 299 304 305 305 306 307 307 307 305 304 304 305 299 296 300 298 297 298 298 296 297 297 294 292 294 293 294 291 288 291 296 291 293 288 287 294 300 298 290 301 298 300 293 298 295 294 298 305 311 311 310 312 309 312 315 316 318 320 319 320 322 326 326 326 328
312 312 313 313 313 313 313 313 313 313 312 313 312 309 304 309 311 314 312 303 305 305 307 306 307 307 309 309 311 311 310 311 309 307 306 299 296 299 298 298 297 302 301 302 295 296 293 295 291 294 291 293 292 291 294 292 290 294 292 299 297 302 304 305 302 299 304 304 303 307 310 312 311 312 312 312 313 316 315 317 318 321 323 325 324 325 328
312 312 313 313 313 313 313 313 313 313 313 313 312 309 308 310 311 311 308 305 301 298 301 304 302 299 301 303 307 309 310 309 310 310 310 306 295 296 300 302 303 302 300 302 304 297 297 298 295 298 289 294 296 291 288 289 290 294 294 293 298 301 302 300 296 301 297 293 306 306 308 311 311 309 311 313 314 314 314 316 320 322 323 325 325 328 330
312 312 313 313 313 313 313 313 313 313 313 312 313 314 314 311 312 310 304 297 298 296 291 298 300 305 307 309 309 308 308 309 310 309 307 306 303 297 296 302 303 299 299 301 305 300 301 294 296 294 288 297 298 289 296 292 292 298 290 294 296 296 305 298 299 300 297 298 305 308 309 308 309 309 309 310 312 314 316 320 322 322 322 323 325 328 329
312 312 313 313 313 313 313 313 312 312 312 312 312 310 309 308 314 314 310 307 306 301 293 292 298 307 309 307 305 307 310 309 308 307 307 306 306 305 303 304 303 305 304 303 302 298 296 295 297 296 292 292 301 293 293 297 295 299 295 294 299 301 303 295 300 297 300 304 304 306 307 307 308 310 311 311 312 314 315 317 318 319 320 321 322 324 326
312 312 313 313 312 313 312 312 312 312 312 312 312 313 312 312 314 312 307 305 299 294 296 293 299 304 307 304 308 310 309 309 308 307 306 306 305 306 305 303 301 302 301 300 301 299 298 296 295 293 296 296 300 297 297 295 296 294 294 298 302 299 295 300 299 295 295 297 300 305 299 299 305 309 311 312 313 313 312 313 315 317 318 320 319 320 325
312 312 312 312 312 312 312 312 312 312 311 312 313 314 315 313 314 314 313 310 303 295 297 297 298 302 307 303 308 309 309 309 308 306 306 305 305 305 303 302 302 300 299 298 295 296 295 292 292 298 298 299 295 294 299 299 299 296 295 297 301 298 300 299 296 295 295 302 305 309 307 307 307 309 311 312 313 312 311 312 314 316 318 318 318 318 321
312 312 312 312 312 312 312 312 312 312 312 310 315 314 314 315 316 315 315 314 311 303 301 301 303 301 296 301 309 307 309 309 307 306 305 305 304 304 303 303 301 301 300 299 298 297 295 295 298 295 295 300 296 293 295 290 291 291 295 300 301 303 304 303 302 302 303 305 306 308 305 304 307 309 310 311 313 313 312 313 315 315 316 317 319 320 320
311 311 311 311 311 311 311 311 312 312 312 315 314 310 306 309 314 314 314 313 311 307 299 296 292 297 306 304 303 306 307 308 307 306 305 304 304 304 304 303 302 303 301 299 298 293 297 296 297 299 301 304 295 294 291 292 291 293 300 301 303 305 305 305 306 302 301 306 307 307 307 307 308 309 310 311 312 313 311 312 313 314 317 320 319 319 321
311 311 311 311 311 311 311 312 312 312 309 313 311 303 302 298 306 314 313 313 313 307 301 300 295 300 298 304 305 305 305 307 306 306 306 306 306 305 306 306 305 304 300 301 299 298 298 295 297 299 303 302 299 294 291 291 290 292 298 301 302 303 304 304 307 307 306 306 307 307 308 307 308 308 308 310 311 312 311 313 316 320 321 320 318 319 321
311 311 311 311 311 311 312 312 312 312 316 314 309 306 305 307 311 312 313 313 313 306 298 293 293 295 295 300 304 307 307 307 307 306 307 307 304 306 306 307 305 310 303 300 301 299 296 298 296 296 296 301 299 293 293 291 289 291 298 300 302 303 304 304 305 306 306 307 306 304 303 305 306 305 305 310 311 312 312 313 314 315 318 319 320 321 325
311 311 310 310 311 311 312 312 312 314 316 312 310 310 309 309 309 312 314 314 310 304 303 296 290 293 293 297 303 306 307 306 307 307 302 310 304 308 305 310 309 307 309 301 295 291 300 298 299 294 298 302 295 290 287 288 290 296 299 301 301 302 303 305 305 305 305 306 306 301 301 302 305 308 309 310 311 311 311 311 312 317 319 319 318 320 324
311 311 310 311 311 311 312 312 312 311 310 311 311 311 312 310 311 310 314 312 307 306 303 296 291 291 292 302 296 304 309 301 300 305 299 308 310 306 304 305 306 299 303 297 300 297 299 298 294 294 297 295 297 289 285 289 295 296 297 299 301 302 302 302 303 303 305 306 306 306 306 306 308 309 308 308 309 311 314 316 318 317 317 318 321 323 326
310 310 311 310 311 311 311 311 314 313 312 313 314 317 313 309 311 312 313 310 299 298 297 298 297 291 292 295 296 301 309 303 299 304 300 304 309 303 305 299 301 294 297 306 298 296 293 293 297 290 287 291 288 285 287 290 293 296 297 298 299 299 299 298 300 302 304 305 306 306 307 307 306 305 305 306 307 309 312 314 315 315 314 317 322 324 325
311 311 312 312 310 312 316 314 313 315 314 313 313 313 312 312 311 314 315 314 307 300 298 297 298 292 293 290 293 302 308 305 307 308 307 307 306 308 306 303 294 299 304 298 291 295 290 298 294 286 289 286 286 288 289 292 292 295 296 298 300 300 300 300 301 303 304 306 306 307 307 307 306 306 307 307 308 309 310 312 314 315 316 319 322 324 325
311 311 309 310 314 317 313 316 319 316 314 316 315 314 313 313 314 313 311 309 311 309 301 299 295 297 297 296 299 303 306 301 310 307 307 304 300 307 303 301 293 299 298 294 294 291 296 303 292 286 286 286 287 293 297 300 302 304 306 307 306 306 304 303 304 304 304 305 305 305 306 306 306 307 307 307 308 309 310 312 314 315 318 320 323 324 325
310 311 315 315 314 314 313 316 315 316 315 313 314 311 310 308 305 306 305 303 307 307 304 302 296 300 303 300 298 311 308 304 312 302 305 308 303 301 304 299 299 298 288 290 295 304 300 294 287 286 286 292 296 298 300 302 304 307 309 310 310 310 308 307 305 304 302 301 302 304 306 306 306 307 307 308 309 311 312 315 317 320 322 323 324 324 324
309 315 315 317 317 312 310 317 317 314 315 315 314 309 307 308 307 306 306 308 306 303 306 302 305 310 306 304 306 314 309 303 302 307 300 308 303 298 304 295 301 300 293 291 297 306 292 292 291 288 287 292 294 297 301 302 304 306 308 309 310 311 310 309 308 306 304 304 306 307 308 306 306 307 309 309 310 312 316 317 321 323 322 322 321 322 321
321 320 316 315 313 316 322 316 315 314 317 312 313 309 306 312 305 299 311 302 301 311 309 302 312 312 310 305 305 306 313 307 302 300 303 305 310 299 303 304 304 298 289 290 294 305 291 287 288 288 288 294 296 299 301 302 303 304 306 308 309 311 313 313 311 311 310 311 311 311 312 312 313 311 311 312 314 315 316 319 320 321 320 320 321 320 319
318 319 318 314 317 321 322 319 319 317 315 312 311 311 308 299 309 310 306 301 302 303 310 308 311 308 312 312 311 306 314 315 313 312 309 301 309 306 301 295 304 294 290 290 301 304 293 289 288 288 290 297 300 301 301 301 302 304 305 307 308 308 310 310 311 314 314 313 314 315 316 316 315 316 317 318 318 318 319 318 318 318 319 319 318 318 319
321 317 317 318 321 324 325 320 319 314 313 312 303 295 302 305 309 308 309 299 299 305 309 308 304 305 306 309 309 314 314 317 315 312 308 302 309 304 300 300 303 293 288 297 302 298 292 286 287 289 295 299 302 303 302 301 303 303 304 305 306 306 307 307 307 308 310 314 319 316 316 318 317 317 318 317 317 317 317 316 316 317 317 318 318 318 316
307 309 316 320 322 319 319 305 311 311 296 296 296 293 301 296 300 301 303 307 310 307 308 317 311 314 314 318 312 315 315 316 311 309 307 302 311 307 301 297 296 289 294 305 298 292 287 286 287 292 298 300 302 302 302 303 303 304 304 305 305 305 305 306 306 306 308 309 310 311 311 311 312 313 315 315 315 314 315 315 316 314 314 313 313 314 314
323 323 323 316 309 311 312 293 309 305 296 298 295 291 299 298 301 305 302 303 306 306 308 305 308 309 305 316 311 309 314 313 312 311 305 307 302 299 298 292 293 299 305 298 294 287 287 292 294 296 300 302 302 303 303 303 303 304 304 305 306 306 306 305 305 305 305 306 306 307 308 308 309 310 311 311 312 312 312 313 315 315 315 313 312 312 313
318 311 306 305 300 305 301 291 305 298 291 297 301 301 300 296 299 303 300 307 310 304 309 310 310 309 306 309 313 311 308 307 311 305 300 303 298 298 295 292 298 298 292 289 291 291 291 291 297 299 300 300 302 304 305 305 305 303 304 304 305 305 306 305 304 304 304 304 305 305 305 306 306 307 308 309 310 311 311 311 313 313 313 313 312 312 312
312 303 301 295 291 297 298 293 295 293 301 303 302 305 304 305 305 305 310 312 310 309 307 309 310 309 306 309 305 302 308 306 304 302 304 301 295 292 299 301 299 292 290 290 286 285 288 294 298 299 302 303 303 304 306 306 306 306 305 303 304 305 305 305 305 305 305 305 305 305 305 306 306 306 306 307 308 309 310 311 312 312 312 311 311 312 314
308 312 305 300 295 298 307 294 297 302 303 305 306 307 307 306 309 309 311 311 309 310 311 315 313 309 305 304 307 305 305 305 300 302 303 296 295 297 301 295 289 290 286 284 285 288 292 298 301 303 304 305 305 305 306 306 307 306 305 306 306 305 306 306 306 306 306 307 306 306 306 306 306 307 307 307 307 308 310 311 311 312 312 311 312 313 313
299 307 305 294 292 298 297 301 306 306 307 307 307 308 307 310 308 307 309 311 312 312 310 309 305 309 305 310 308 301 302 303 299 299 301 297 299 295 290 292 289 291 291 288 289 295 297 300 302 303 303 305 306 306 306 305 305 306 306 306 306 306 306 306 306 307 307 307 307 307 307 308 308 307 307 306 307 307 308 309 309 310 311 311 311 312 312
311 300 298 297 303 302 302 305 304 302 303 306 306 306 306 305 305 307 309 312 310 309 311 308 306 307 302 305 302 301 298 302 295 293 300 296 292 288 288 285 286 286 292 295 295 299 300 302 304 305 306 305 306 304 306 306 307 307 307 307 307 308 308 308 308 308 308 308 308 308 307 309 309 309 308 307 306 306 307 308 308 309 309 310 310 310 310
302 300 305 300 303 303 305 306 304 300 302 304 304 303 305 305 304 307 310 309 309 310 311 309 309 303 302 303 295 299 296 301 299 297 296 292 293 293 291 286 288 289 293 299 299 301 303 304 306 304 305 306 306 306 305 305 308 308 307 307 308 309 309 309 309 309 309 309 309 309 309 309 308 308 308 307 307 307 307 307 307 307 308 309 308 308 309
310 303 303 308 303 301 303 298 298 298 300 301 302 303 304 303 304 306 310 309 309 307 305 302 303 300 297 295 294 291 292 301 298 295 294 293 297 293 288 287 290 296 298 302 304 304 305 308 307 307 306 306 307 308 308 308 307 306 307 307 308 308 308 309 309 309 309 309 310 310 308 308 308 308 308 308 307 306 305 306 307 307 307 308 308 307 307
301 298 301 305 308 306 305 304 305 303 303 303 304 305 306 303 305 307 311 309 307 303 300 303 302 297 293 292 296 299 302 298 294 296 293 296 299 294 293 294 296 298 302 302 304 305 305 306 307 307 309 308 309 309 309 308 307 306 306 307 307 306 306 306 306 307 308 308 308 308 308 308 308 308 308 307 306 305 304 304 306 307 307 306 306 307 307
Wind_Speed
18 18 18 18 18 18 18 19 20 20 21 16 15 14 11 8 10 15 11 12 11 12 8 8 7 7 8 11 10 9 8 8 9 9 7 8 7 10 8 11 14 12 12 14 13 14 13 15 15 18 14 11 12 12 17 19 14 15 10 16 4 17 7 12 15 14 15 21 18 20 21 21 21 21 19 16 16 17 13 9 8 9 11 11 8 9 4
18 18 17 17 17 17 17 18 19 20 19 15 14 12 11 11 12 13 8 10 9 10 7 8 8 9 9 11 13 7 8 8 7 8 9 8 5 7 9 10 10 12 12 11 12 13 12 11 15 13 14 11 26 29 26 19 12 11 9 7 12 6 8 12 9 9 9 17 16 17 20 18 15 17 19 20 17 18 17 12 8 9 12 13 9 9 3
18 17 17 16 15 16 16 17 18 18 18 17 12 10 11 12 12 9 9 8 6 7 6 8 8 10 12 12 13 10 7 8 8 8 10 7 7 6 8 9 11 11 10 12 12 11 13 14 16 17 15 16 22 22 28 23 15 13 14 14 11 7 10 8 12 12 13 17 18 18 18 19 16 17 22 25 24 21 15 15 8 7 8 12 9 7 4
18 17 17 16 16 15 15 16 17 18 17 17 13 9 10 9 11 9 8 8 8 4 7 8 9 10 11 12 10 10 10 8 7 10 8 4 7 7 9 9 10 11 10 11 11 12 13 14 12 10 12 13 11 16 27 21 16 16 17 16 11 8 10 10 10 10 10 8 7 14 12 14 18 20 23 25 24 22 17 9 11 10 6 9 7 5 10
18 18 18 16 16 15 14 15 16 17 17 16 13 11 8 10 9 10 10 10 6 8 9 9 10 10 10 9 9 12 11 11 9 2 7 5 10 10 9 9 9 9 11 10 11 11 15 15 15 10 13 11 14 23 22 20 16 31 15 12 9 7 9 12 13 16 16 13 13 2 16 21 21 22 23 24 26 25 21 15 13 6 7 6 7 9 11
19 19 20 17 15 15 14 14 15 16 17 18 11 9 8 6 8 10 11 11 9 12 9 12 13 13 12 10 10 12 12 11 9 8 5 9 7 8 4 7 7 9 10 13 12 11 13 13 12 12 12 14 16 16 16 17 23 25 16 11 9 7 9 11 12 17 15 14 17 14 8 11 13 24 22 24 24 26 25 18 15 13 9 7 7 4 4
21 19 20 19 15 14 14 14 13 14 17 15 9 8 7 9 9 8 12 10 12 13 16 15 14 14 12 9 10 10 12 10 9 9 10 8 8 7 9 9 10 11 11 10 11 12 10 11 11 10 11 13 14 13 19 13 20 20 17 12 7 9 8 11 12 15 14 15 16 14 14 12 9 17 23 21 24 25 26 20 17 15 8 8 8 6 9
21 20 20 19 15 13 14 14 13 12 14 13 8 6 8 7 8 6 12 11 13 14 12 12 12 11 10 10 7 6 10 11 11 9 9 10 9 8 10 10 10 12 13 12 11 12 12 13 14 12 14 13 9 10 7 10 17 18 15 13 11 10 6 14 14 11 12 12 12 17 13 3 11 13 15 22 19 22 24 22 20 17 14 15 11 12 10
21 21 21 20 18 14 13 13 12 11 9 8 4 6 5 7 8 7 8 12 8 10 11 11 10 10 9 8 8 9 10 9 10 13 10 11 11 10 12 11 13 12 12 13 13 12 12 11 11 12 12 11 10 9 8 13 16 19 15 12 14 13 10 13 10 9 11 9 10 13 13 11 12 14 14 13 19 22 21 20 19 16 14 13 14 8 10
23 22 22 21 19 15 13 12 11 10 8 7 4 6 5 7 8 7 7 7 9 11 12 12 11 9 6 7 11 12 12 13 13 11 6 10 6 7 9 12 13 13 13 13 11 12 13 13 12 12 11 10 12 11 12 13 14 13 13 13 11 10 10 9 8 10 11 8 7 13 12 6 10 12 13 14 13 13 17 18 19 18 16 14 13 7 6
23 23 22 20 19 18 16 13 11 11 8 6 4 6 5 5 8 8 6 9 11 9 11 10 10 10 14 13 12 11 14 12 11 8 7 7 11 9 9 10 11 11 13 13 13 13 13 14 14 12 13 14 13 14 14 17 15 15 13 12 10 13 10 10 9 8 11 10 8 10 9 10 10 7 14 14 14 13 17 18 20 20 17 11 10 7 11
23 23 22 21 19 18 16 13 10 10 9 6 4 6 6 4 5 5 5 5 10 9 10 11 11 13 14 18 18 14 14 14 12 7 12 12 12 12 12 11 9 10 10 13 12 12 14 15 16 15 16 16 17 18 20 18 17 14 13 13 12 13 11 9 8 8 8 7 8 9 13 11 6 9 10 10 10 9 13 14 22 19 19 16 14 12 10
24 23 23 22 21 19 17 15 12 10 9 6 4 9 4 2 2 4 5 7 11 10 11 13 14 17 17 19 17 13 11 14 14 15 15 13 13 11 8 9 9 11 8 11 12 12 12 12 12 14 15 14 14 17 20 20 17 17 14 13 11 10 8 9 9 8 8 8 7 13 11 6 8 11 7 6 10 12 11 13 10 18 20 17 15 16 11
24 24 23 22 21 20 19 17 14 11 11 9 8 7 6 5 4 4 4 4 8 9 11 15 15 15 14 14 13 16 14 14 14 7 13 11 12 13 10 8 9 8 9 9 10 9 10 9 9 7 9 9 11 13 15 18 18 17 17 14 11 11 10 9 9 8 7 6 7 11 6 10 16 15 13 11 10 10 8 6 6 7 4 10 8 8 7
24 24 22 22 21 20 18 16 14 12 12 12 8 8 8 6 6 5 5 6 10 11 9 10 11 14 15 13 11 12 12 6 12 10 9 9 13 8 10 11 8 9 7 9 7 5 6 8 9 7 7 8 8 9 10 11 13 18 18 15 12 10 11 5 7 6 7 7 8 7 10 13 12 2 7 8 9 11 9 8 7 7 8 4 0 4 5
23 23 22 21 20 19 18 17 15 12 12 11 8 6 8 7 6 6 6 6 6 10 8 10 12 11 11 14 14 12 9 7 7 10 11 9 9 9 4 5 7 14 10 8 7 6 5 6 7 8 8 8 9 8 7 9 10 14 17 19 15 13 11 10 9 8 8 8 8 8 8 9 7 13 10 6 3 2 12 2 8 3 8 10 9 6 6
22 22 21 20 19 19 18 16 14 11 12 10 7 6 8 7 7 7 6 6 6 14 14 16 18 17 14 12 10 7 7 8 6 8 9 9 12 13 14 13 8 7 9 8 3 3 6 6 7 9 9 8 8 7 11 10 11 11 18 18 20 16 10 9 9 10 9 8 8 9 8 3 4 2 10 13 10 2 3 6 6 9 14 19 6 14 4
22 21 21 20 19 19 18 16 16 13 11 11 7 7 7 6 8 5 5 8 9 11 13 13 13 11 9 8 11 10 7 6 9 9 8 8 9 5 6 9 8 6 2 3 5 6 6 5 7 7 8 6 8 7 8 6 9 7 15 14 14 13 12 11 12 10 10 12 9 10 6 3 3 11 9 7 4 9 10 8 5 7 14 13 16 17 12
21 21 21 20 19 18 18 17 16 15 14 11 8 8 9 9 8 8 6 7 7 10 9 9 13 14 13 13 13 12 9 11 9 8 8 9 2 4 11 10 10 5 7 2 7 7 6 6 6 6 8 5 4 5 6 8 8 11 9 15 14 14 11 10 12 11 11 9 9 9 7 3 10 4 7 8 2 9 8 4 9 7 7 11 12 14 12
21 21 21 20 19 17 17 16 16 14 13 11 6 7 7 5 8 10 9 9 7 12 14 12 11 16 12 14 12 12 10 10 8 8 8 10 8 12 9 4 3 5 3 0 4 4 4 5 6 2 5 6 4 7 8 12 9 7 5 6 7 12 11 13 13 10 10 11 10 8 8 5 7 9 4 6 6 2 6 7 4 8 8 9 12 12 13
21 21 20 19 19 18 17 17 16 14 15 13 9 8 8 6 8 10 11 10 6 11 13 9 12 13 12 13 13 14 13 12 11 11 9 10 7 6 6 2 3 1 1 3 4 4 4 3 4 5 4 3 4 6 6 7 8 7 9 7 8 6 12 10 10 10 12 14 13 7 9 6 5 2 4 9 6 5 3 8 3 6 7 11 7 12 11
21 21 20 19 19 19 18 17 16 14 13 13 9 6 10 5 6 7 9 9 9 13 11 13 14 15 16 17 17 16 15 17 17 12 11 12 7 8 9 11 8 1 4 4 4 4 1 2 3 3 6 5 4 7 7 8 7 3 6 5 7 2 5 3 4 9 11 8 10 8 7 8 7 10 15 9 11 10 10 10 6 8 9 10 8 10 11
21 21 20 20 19 19 18 17 16 14 13 14 10 6 8 6 4 6 7 9 8 9 11 13 14 16 16 18 18 18 17 14 14 12 11 10 11 9 9 8 8 7 5 2 5 4 5 6 6 6 9 6 6 8 8 7 9 4 4 4 10 8 7 4 7 7 8 8 8 8 7 4 5 8 10 9 11 8 11 12 10 8 9 7 7 7 8
21 21 20 20 20 19 18 18 16 14 12 12 9 8 8 6 6 4 6 6 7 7 9 12 11 9 9 10 8 7 8 10 10 10 8 7 10 9 7 8 7 7 4 6 6 7 7 6 7 6 8 7 7 6 8 7 7 6 8 8 7 10 9 8 7 6 6 4 8 10 6 4 8 13 10 8 7 9 8 10 9 9 10 11 9 10 9
20 20 20 20 20 19 18 17 16 15 13 14 12 9 8 8 5 6 6 6 4 5 7 7 9 11 12 11 10 11 10 10 9 10 9 9 11 11 10 8 7 8 9 9 6 7 5 7 7 6 8 6 4 6 6 8 7 5 6 6 7 5 11 10 10 10 9 8 4 4 6 13 12 9 10 7 8 10 11 9 10 10 10 11 14 14 11
21 21 21 20 20 19 18 17 17 15 14 12 11 8 7 7 3 6 6 6 3 2 5 10 10 10 10 10 10 9 10 9 11 12 12 12 12 12 13 10 10 8 8 8 8 9 8 8 7 8 8 8 4 8 8 8 11 10 10 10 10 9 7 7 6 9 10 12 14 12 12 13 11 11 10 9 8 12 11 12 12 11 12 12 11 11 12
21 21 21 20 20 20 19 18 17 15 11 9 7 7 8 7 6 6 6 5 4 5 7 10 9 10 8 13 13 12 13 12 11 11 11 12 12 11 11 11 10 9 9 9 8 9 7 9 9 10 8 8 8 10 10 10 10 10 11 11 10 10 11 9 10 10 9 10 9 7 9 8 8 10 8 9 13 12 14 13 12 12 13 12 12 11 10
22 22 21 22 21 21 20 18 16 12 10 9 8 7 7 7 6 6 6 6 6 7 8 9 10 12 14 16 14 11 8 9 10 11 12 12 13 12 12 11 10 9 8 8 8 8 8 10 11 9 9 9 9 11 9 11 11 12 14 11 9 11 10 9 10 9 9 8 10 6 9 9 7 9 12 13 13 15 16 16 14 12 12 14 14 14 11
21 21 22 21 20 19 18 16 13 11 7 6 5 4 5 6 5 5 6 6 5 5 7 9 10 11 8 8 10 11 8 9 8 8 9 11 12 11 11 11 11 10 9 8 8 8 9 10 9 9 8 9 9 11 9 10 11 13 12 11 12 12 12 14 14 14 14 13 12 5 7 9 9 11 12 11 10 11 15 17 17 17 13 13 14 13 14
22 22 21 20 18 19 16 14 11 7 6 5 4 3 3 2 2 3 4 4 4 2 5 6 7 4 9 9 10 10 11 9 9 10 11 10 10 9 10 11 10 9 7 7 6 8 7 8 9 9 11 10 8 8 10 11 13 15 14 15 14 12 13 14 13 15 13 11 12 11 11 11 10 11 12 11 10 11 12 15 17 20 21 17 16 15 15
22 21 19 17 18 17 14 11 9 4 3 4 2 3 3 1 1 1 4 4 2 2 4 3 7 8 8 6 7 7 11 11 9 7 8 8 7 8 7 6 6 4 4 4 4 7 5 5 5 5 5 7 6 5 9 12 15 15 17 15 13 13 12 13 11 12 12 12 13 14 13 12 11 11 13 12 11 10 11 12 13 13 16 19 19 17 15
20 18 16 15 16 15 11 7 5 3 4 2 3 3 2 2 2 3 3 3 4 1 2 5 6 5 6 6 6 8 6 7 5 2 3 2 6 6 7 4 4 3 4 4 4 3 6 6 8 9 8 4 5 5 6 12 17 23 17 11 14 14 14 14 12 12 11 11 12 14 16 16 13 13 11 10 11 12 13 14 14 15 15 15 14 15 15
18 16 14 13 13 12 9 7 4 4 1 5 8 6 6 4 4 1 5 3 2 1 1 2 4 5 4 6 8 6 6 4 2 2 3 1 2 2 1 3 3 3 6 3 4 4 2 4 4 9 6 2 5 4 5 13 19 24 21 18 16 17 17 16 16 14 14 13 13 15 15 14 14 13 13 13 13 13 14 16 15 13 13 14 15 15 14
15 14 13 12 9 7 7 5 3 2 3 3 2 3 5 7 4 3 3 2 1 1 1 3 4 5 7 5 4 2 3 4 4 2 4 0 1 1 1 2 3 2 2 5 3 3 3 3 6 8 5 6 5 5 8 17 21 24 26 21 18 18 17 19 19 19 18 17 16 17 17 16 15 14 13 13 15 14 13 10 10 13 13 14 14 12 12
13 12 10 7 6 5 5 1 3 5 3 2 1 3 7 2 3 6 5 2 2 2 3 3 2 5 6 4 4 2 2 2 4 3 3 2 1 1 2 1 3 1 1 2 2 4 4 4 1 4 5 0 3 6 10 18 22 19 19 21 23 22 22 22 23 20 19 17 17 18 17 17 18 18 17 17 16 15 15 13 12 12 13 13 12 12 9
11 9 7 2 1 3 3 6 6 5 4 2 4 8 10 6 3 3 3 2 2 3 3 2 2 4 3 6 8 3 2 4 2 2 0 2 1 1 0 1 1 1 3 2 3 2 3 1 1 3 2 2 5 4 15 22 25 26 26 23 21 18 18 19 16 16 15 16 18 16 16 17 18 17 16 16 15 16 16 14 13 12 13 13 11 8 6
8 4 3 5 5 3 5 4 5 1 4 5 11 12 9 5 2 0 3 3 3 1 3 4 4 3 2 4 4 4 4 6 3 2 2 2 2 0 2 1 0 1 1 2 3 4 5 2 2 3 2 5 12 16 19 18 18 17 12 12 11 13 16 16 17 14 15 16 16 14 15 16 17 15 15 14 14 14 14 13 12 12 13 12 9 5 4
3 3 4 4 4 4 1 3 2 7 13 16 14 7 3 3 3 3 3 3 4 4 5 4 5 3 2 2 3 1 1 3 2 4 1 2 2 1 1 1 1 2 2 2 4 3 2 3 0 2 3 7 11 18 23 19 15 16 16 11 2 6 9 13 14 14 14 13 13 15 15 16 16 15 15 15 14 14 12 9 10 11 8 3 0 2 5
10 5 5 5 5 4 4 3 8 11 6 4 2 2 4 4 4 3 2 3 4 4 5 5 3 2 3 3 3 2 2 3 5 3 5 2 2 2 1 2 2 1 1 1 1 3 2 2 3 2 5 13 19 25 23 21 22 21 19 19 15 6 4 10 13 16 15 13 12 13 13 13 15 15 14 13 12 11 8 7 6 5 8 9 9 7 10
5 4 3 1 3 4 6 8 12 7 4 3 2 4 3 4 3 3 1 1 1 2 1 4 3 2 2 4 5 3 4 0 3 5 4 3 2 4 3 3 0 1 3 6 4 1 3 5 3 3 8 12 16 21 23 24 24 23 22 21 20 17 14 3 9 11 10 10 10 9 9 12 12 12 12 10 7 6 6 7 6 6 12 11 8 10 14
3 6 3 4 4 3 3 7 5 4 4 3 2 2 4 3 4 2 2 4 5 4 4 6 6 7 2 4 4 5 2 2 2 2 2 2 1 1 2 4 3 2 3 5 5 4 2 1 3 10 17 14 12 16 19 22 25 25 22 21 23 21 19 20 19 7 5 8 7 6 7 8 7 5 4 4 4 5 6 9 10 11 14 13 14 13 10
3 4 5 7 7 6 3 4 6 4 1 3 3 2 3 3 4 2 2 6 7 3 5 2 4 7 6 1 6 4 0 2 2 1 1 2 1 2 3 3 3 4 5 3 5 4 3 4 6 12 14 17 17 15 17 20 20 24 28 28 26 23 24 27 26 23 21 13 9 9 9 7 8 7 9 12 12 11 10 12 17 16 16 14 14 13 14
6 5 4 4 5 3 4 2 4 3 1 2 2 2 4 2 5 7 6 5 4 4 5 2 4 5 2 4 3 4 3 1 2 0 1 2 2 0 4 5 4 9 7 3 3 4 7 7 10 13 11 14 16 17 16 17 18 20 22 24 24 25 27 26 25 24 21 20 22 18 15 16 18 15 15 15 16 18 16 16 17 16 16 17 16 15 15
5 5 4 2 3 2 2 1 4 2 2 2 3 4 9 9 9 9 8 9 9 7 9 11 9 9 8 2 3 2 1 3 2 1 2 4 5 6 4 5 9 5 3 2 3 5 4 5 11 12 11 11 14 16 17 17 17 18 21 22 23 25 26 28 27 26 26 26 25 22 20 23 22 18 19 20 19 18 17 17 17 18 18 19 18 16 14
4 2 3 2 1 2 1 1 4 3 4 6 5 7 5 8 9 7 7 5 4 10 12 10 11 9 7 6 2 2 3 4 3 2 8 5 8 7 7 7 5 4 6 7 5 4 2 8 11 12 15 15 14 14 14 15 16 18 18 20 22 23 22 23 23 23 24 27 25 22 21 20 20 21 21 19 18 18 17 15 13 16 16 17 17 17 15
3 3 3 3 3 2 2 1 1 3 5 5 7 10 10 6 5 8 5 2 3 8 8 8 8 11 8 6 6 8 7 6 5 7 5 6 6 8 6 3 3 8 8 5 7 11 12 11 10 12 11 10 10 12 12 12 13 14 16 19 19 20 21 21 21 21 20 19 19 20 20 20 20 19 18 17 18 18 17 17 15 13 14 16 16 14 14
2 3 1 1 3 2 3 4 6 6 7 8 10 9 9 10 9 8 8 8 9 8 7 2 3 6 8 8 5 6 7 5 7 7 4 7 7 4 4 6 8 7 6 9 8 6 10 12 9 8 10 9 11 12 11 12 12 14 15 15 17 18 18 19 19 19 18 17 18 18 18 17 17 16 15 17 16 16 15 16 16 16 15 14 12 12 14
3 3 2 3 3 3 7 7 5 5 6 7 8 8 9 9 10 11 12 11 9 9 8 7 4 2 3 5 5 8 7 5 6 8 6 4 2 4 3 7 7 5 4 4 7 7 8 9 10 11 12 12 10 10 10 12 14 15 14 15 16 16 16 17 16 16 16 16 16 16 15 15 15 15 15 15 15 15 14 15 15 16 16 15 16 15 14
3 3 4 3 4 6 8 7 7 7 9 9 10 10 10 10 11 10 11 10 11 10 8 6 7 5 5 4 7 6 8 7 5 3 5 5 5 5 4 3 5 6 6 3 5 6 7 8 10 9 10 11 12 12 10 10 9 9 11 13 12 13 13 13 14 14 14 13 13 13 14 13 12 12 12 13 13 13 13 13 14 14 14 15 15 15 15
2 2 4 4 6 7 8 7 8 9 8 9 9 10 11 11 11 11 11 11 10 8 7 5 6 5 7 5 3 5 6 6 6 3 6 9 7 5 5 4 3 3 4 6 7 8 9 7 5 7 9 11 12 12 12 11 11 12 12 12 11 10 11 11 12 12 12 12 12 12 12 11 11 11 12 11 10 11 12 13 13 13 13 14 13 13 14
2 2 4 6 8 8 8 9 10 10 10 10 11 11 11 11 11 11 12 10 9 8 8 8 6 5 4 4 3 2 3 4 6 8 6 6 4 3 2 3 5 6 7 4 5 5 6 6 8 9 9 8 8 10 9 9 10 11 12 11 11 11 11 12 11 11 11 11 11 11 12 12 11 11 10 10 10 11 12 13 12 11 12 11 11 12 12
2 3 6 7 7 7 8 7 7 8 9 9 9 9 10 11 11 10 10 9 9 10 10 7 6 5 4 5 4 3 1 2 4 5 6 6 4 4 3 3 6 6 6 7 6 6 9 10 11 11 9 9 9 9 11 12 12 12 12 12 12 11 12 11 11 10 10 9 10 10 10 10 10 10 10 11 11 10 10 10 10 11 11 10 11 11 11
Wind_Direction
329 332 331 332 333 335 336 338 338 344 347 350 348 322 314 338 308 300 305 32 342 314 308 335 325 322 331 335 300 327 299 316 321 307 307 309 328 319 301 308 310 299 309 329 322 314 298 305 298 308 311 326 13 335 352 345 329 343 357 338 49 351 242 230 246 247 227 183 192 188 207 211 207 206 211 213 209 198 214 212 208 209 204 215 223 236 83
328 327 327 329 331 332 335 337 339 341 354 351 337 321 321 323 311 296 45 10 357 295 345 334 335 323 326 323 317 324 317 304 313 294 291 276 313 297 308 292 280 296 321 320 306 315 306 300 299 303 327 332 357 348 351 351 329 351 4 342 347 290 224 244 256 243 269 187 185 197 193 217 218 205 202 213 213 202 206 218 205 225 203 210 214 219 167
324 323 323 326 329 331 334 337 337 341 344 348 336 322 319 298 275 279 354 334 6 325 341 320 318 316 325 324 313 321 303 329 299 312 311 315 289 304 282 302 312 305 320 304 299 285 275 293 297 307 345 344 344 324 331 338 325 341 349 314 314 293 304 282 229 229 221 197 187 194 189 201 216 212 199 206 214 210 196 207 202 220 193 204 211 216 130
322 321 322 325 327 329 333 335 336 337 341 342 337 323 308 320 324 330 325 349 322 259 312 319 322 317 325 315 317 318 314 297 329 303 311 298 292 286 302 289 290 291 305 302 309 306 295 289 299 327 6 336 330 325 311 318 319 343 333 301 289 297 292 271 282 263 242 228 205 198 206 194 210 211 209 196 210 219 213 202 211 205 196 208 199 223 126
321 319 321 323 324 328 331 332 334 336 335 340 331 314 302 296 295 342 330 338 299 329 323 326 323 312 319 299 314 307 309 312 297 357 298 355 328 312 293 311 306 304 301 308 307 300 302 301 307 352 355 334 321 320 310 294 346 347 312 289 301 283 265 266 264 271 280 315 303 190 217 199 203 215 206 202 197 213 215 204 205 176 186 218 181 146 165
316 318 317 319 320 323 327 331 333 335 331 335 329 327 333 315 337 321 343 316 308 318 319 323 307 303 303 294 300 301 308 298 306 306 323 312 296 295 278 280 302 317 311 305 295 311 308 304 306 352 341 339 333 321 325 327 350 344 332 317 326 324 284 290 285 273 266 264 277 273 315 311 220 209 213 202 197 203 217 206 206 181 202 195 178 182 175
314 313 314 314 317 319 323 328 332 334 330 331 324 325 330 313 319 312 344 312 313 307 306 301 302 308 303 301 293 305 295 305 320 312 313 305 305 306 311 309 313 314 309 304 300 309 308 310 330 334 329 331 330 329 339 340 337 340 333 332 346 325 277 277 292 291 283 278 272 262 265 233 259 213 213 210 197 201 210 215 211 200 189 224 175 182 227
311 312 312 312 312 313 316 321 326 331 331 319 326 3 327 341 333 323 329 312 300 295 303 309 309 299 298 286 300 265 278 313 318 314 322 312 303 311 297 303 308 309 309 302 296 304 306 315 316 318 316 320 322 316 292 309 321 333 334 331 344 324 328 343 317 307 287 275 272 289 264 335 285 290 222 211 205 200 200 212 216 207 203 200 218 168 203
308 309 309 309 310 310 312 314 319 325 338 326 340 321 327 319 309 312 319 312 296 302 300 300 304 295 310 307 308 302 313 309 298 299 308 301 322 329 305 317 305 303 301 303 301 307 301 296 295 303 309 308 319 316 304 316 314 318 325 336 331 332 327 325 308 291 270 244 266 270 245 231 253 269 275 220 211 199 195 204 209 207 199 187 214 176 195
308 307 308 308 307 310 308 309 312 314 313 303 300 288 328 308 307 316 322 293 286 292 297 300 304 294 309 300 322 308 310 302 309 306 325 306 311 284 306 302 303 289 291 296 306 308 303 304 301 298 288 279 278 273 282 287 289 301 305 318 318 324 323 324 327 292 262 251 268 297 272 226 261 257 263 256 241 223 193 201 204 209 204 198 200 187 162
308 308 308 308 307 307 308 305 300 301 302 298 298 285 304 308 318 327 312 296 291 286 298 296 302 308 314 306 289 274 287 306 302 310 303 298 290 280 271 282 283 292 299 313 322 313 300 294 289 283 278 277 273 278 277 270 272 281 294 308 306 313 315 326 318 297 296 276 263 279 238 222 240 249 250 222 209 218 212 198 202 199 205 206 193 193 152
308 308 306 306 306 304 302 297 287 273 279 288 256 266 261 275 294 270 272 283 286 302 295 289 292 299 305 310 301 298 305 300 303 289 285 295 295 291 287 284 287 289 299 291 284 295 294 280 272 267 266 263 263 265 262 261 263 261 265 275 294 304 315 299 307 300 294 280 235 242 226 233 243 232 241 265 275 287 276 216 192 197 196 207 187 198 166
307 306 306 306 305 303 298 293 285 276 262 268 245 266 256 198 261 285 288 278 277 297 295 293 298 296 305 303 296 311 297 294 295 303 298 294 285 279 281 293 286 285 284 291 301 294 289 294 288 282 276 273 267 259 256 256 257 260 257 255 270 296 305 309 300 298 289 293 241 230 226 215 244 231 229 252 256 255 266 280 231 189 188 193 201 189 177
307 306 306 305 303 302 298 293 288 273 261 255 267 258 261 247 256 283 281 290 281 269 288 295 290 287 290 295 318 307 314 308 302 299 295 299 322 300 281 264 288 306 300 305 298 314 307 288 284 288 267 252 248 245 249 251 246 244 245 248 248 257 290 291 302 292 269 264 279 259 245 218 221 229 205 199 225 232 250 267 260 300 266 188 178 149 156
307 306 307 306 303 301 299 295 290 279 266 256 255 260 255 239 225 235 255 247 266 282 269 267 281 291 294 302 316 308 294 334 315 295 274 265 242 285 334 328 304 287 295 294 293 297 297 296 290 290 283 247 235 247 228 237 227 228 235 238 235 245 255 266 286 286 267 265 270 275 235 216 193 297 226 194 228 234 231 234 268 284 293 319 178 166 177
309 309 308 308 304 301 299 298 293 282 271 259 260 250 251 242 226 219 234 252 284 287 251 231 255 287 304 305 311 293 292 321 320 307 297 294 281 267 221 237 283 282 287 292 296 288 255 268 280 277 271 252 242 261 239 215 214 207 214 215 224 227 230 271 272 274 266 247 263 262 244 210 169 195 234 182 251 122 39 304 217 178 259 242 240 232 200
311 310 309 307 306 303 301 299 295 285 273 261 262 249 254 209 212 216 234 248 240 252 286 298 299 293 292 289 298 298 351 318 313 296 309 308 317 324 341 327 302 295 294 288 259 258 278 279 292 285 269 282 284 263 276 268 223 196 192 203 207 207 221 224 235 252 259 265 249 250 224 128 351 189 193 197 171 21 196 196 174 32 32 15 287 220 28
312 311 311 309 308 307 304 301 297 291 279 267 258 258 260 202 207 193 226 247 265 277 265 270 270 280 277 300 302 304 288 282 285 292 287 303 295 1 315 287 293 290 25 236 252 256 277 277 279 281 279 289 297 295 263 312 303 220 182 188 190 197 204 211 223 225 254 263 269 266 256 106 57 42 25 21 189 167 197 199 64 357 39 33 35 48 39
314 312 311 311 309 308 305 303 300 295 291 281 274 273 253 231 212 189 230 239 232 255 272 301 299 289 286 290 285 295 287 292 295 293 302 301 327 270 276 299 339 320 31 27 320 286 270 281 272 270 274 263 239 269 287 269 268 326 319 187 189 192 192 201 216 227 230 233 245 250 263 221 89 57 342 19 250 188 172 26 288 346 50 47 39 45 34
314 312 311 312 311 308 307 305 302 298 293 283 259 254 263 244 208 200 211 236 242 258 274 274 278 277 284 289 298 292 309 300 298 303 303 293 326 321 319 318 22 304 283 251 281 275 299 292 302 318 281 288 291 310 285 264 260 270 291 312 232 185 190 194 199 209 227 225 229 229 237 192 98 81 52 331 325 349 337 324 13 17 34 45 44 32 27
313 312 311 313 312 310 307 306 304 299 295 289 275 279 272 214 220 211 210 225 245 271 281 263 246 261 273 272 271 279 274 273 286 289 291 291 298 290 293 312 342 347 297 301 312 335 315 292 312 298 324 300 300 309 280 311 300 270 269 271 291 221 205 193 199 203 212 210 219 221 235 298 122 92 84 45 84 213 287 262 350 356 43 27 20 32 16
315 314 314 313 311 309 306 305 306 301 294 289 286 270 273 252 227 208 204 207 227 235 259 291 302 290 281 277 276 272 270 272 274 273 283 285 285 279 295 293 288 212 242 242 289 249 205 298 295 271 295 296 298 275 288 288 271 311 316 304 249 134 268 356 259 187 212 222 224 214 325 298 328 34 38 19 7 8 5 34 20 5 16 22 12 12 7
317 316 314 313 310 309 308 306 306 303 295 290 289 263 263 282 252 212 191 220 230 255 270 278 278 277 270 268 264 261 263 264 267 263 250 263 278 274 273 282 305 298 304 259 290 328 283 295 288 306 303 292 308 298 301 281 279 271 274 282 299 317 298 333 277 278 310 293 286 314 263 299 273 33 17 350 349 6 16 22 12 13 350 3 358 352 6
315 315 313 312 312 310 310 309 307 306 301 293 283 281 279 264 269 222 196 222 236 266 273 254 260 264 266 280 279 269 258 252 250 254 253 250 267 272 263 259 256 261 277 349 322 303 310 312 300 300 286 295 293 282 283 285 279 316 315 273 257 272 269 255 262 288 324 253 199 230 256 277 328 356 346 347 310 345 3 14 10 356 345 339 347 0 3
315 315 315 314 313 312 312 313 311 307 303 298 288 269 263 263 231 211 224 235 220 230 264 287 255 273 284 291 284 275 262 259 252 238 234 233 241 255 268 288 305 301 311 310 304 286 276 289 293 286 293 299 328 291 287 287 282 359 301 290 280 254 353 302 259 260 240 255 235 246 321 332 327 322 317 315 328 326 353 10 360 346 340 347 355 351 0
317 317 317 315 313 315 315 314 312 308 304 299 292 283 276 273 242 191 216 245 274 254 269 274 279 283 280 283 282 292 301 274 253 249 244 239 233 243 261 271 273 272 282 288 289 287 288 276 272 280 279 283 257 280 285 300 299 295 274 274 279 301 297 272 305 273 247 246 265 283 303 296 290 287 305 304 357 8 352 351 344 340 342 349 346 352 344
317 318 316 315 316 316 318 317 315 311 302 289 277 263 247 248 235 213 208 204 230 252 229 253 274 282 295 303 299 287 276 272 267 256 249 242 247 243 245 253 268 278 275 277 280 281 279 271 277 273 271 287 309 286 286 279 276 278 275 270 264 254 250 268 269 263 252 239 233 231 250 252 251 242 256 331 1 349 338 332 333 334 337 338 338 341 347
318 317 316 316 317 319 320 320 319 313 299 276 260 248 244 244 237 219 217 222 214 262 306 303 299 308 313 286 282 276 259 241 239 247 245 245 243 247 249 250 257 262 262 271 277 272 269 275 273 287 290 289 286 281 279 282 280 268 259 257 252 257 256 240 240 243 249 246 261 297 312 281 279 323 346 342 345 341 330 324 322 327 328 331 331 334 342
315 316 317 318 318 319 322 321 320 311 293 270 248 237 232 237 243 228 229 220 239 257 268 283 290 288 293 337 322 301 295 288 277 248 246 250 248 241 243 249 250 250 258 259 268 273 277 274 277 280 283 316 313 291 300 281 271 264 259 253 246 248 254 254 258 262 262 270 261 285 326 304 324 323 324 324 338 339 325 317 318 318 321 322 327 332 335
315 317 318 317 317 320 323 322 315 305 280 248 236 252 254 160 198 234 215 223 210 260 291 296 301 307 339 319 308 315 331 322 281 269 256 248 251 250 249 248 244 250 257 264 253 262 272 275 279 289 293 328 305 295 280 279 274 268 272 274 272 264 253 246 246 250 257 267 280 299 313 307 308 309 306 315 322 314 312 312 315 319 320 330 330 330 330
317 318 315 314 315 318 321 321 308 289 231 244 249 273 304 133 122 108 142 195 144 250 269 279 277 314 296 285 297 350 337 332 333 329 307 292 272 263 258 247 261 236 255 245 257 264 277 262 289 276 296 284 285 272 273 281 275 274 256 260 269 270 266 261 260 265 265 257 269 285 285 281 286 292 288 293 303 303 296 295 304 312 320 320 320 321 317
317 316 313 313 312 314 314 308 294 248 243 324 334 343 6 25 64 69 83 96 118 190 276 302 304 296 309 303 327 332 329 332 318 342 298 335 275 256 256 210 226 156 203 247 277 276 241 257 258 264 267 278 297 269 262 259 262 263 262 252 254 258 266 274 269 268 273 282 281 268 268 271 269 268 278 295 304 308 303 301 304 305 309 306 304 304 303
317 313 310 310 310 308 301 294 267 243 21 72 83 87 77 105 58 73 119 118 139 285 19 300 277 296 288 303 320 327 339 310 295 4 305 147 293 83 243 146 160 176 148 208 197 241 237 229 254 259 256 251 237 247 242 244 249 258 265 258 255 261 263 264 268 267 268 267 261 255 253 255 260 262 268 280 286 287 286 283 285 299 299 296 294 293 293
313 313 311 312 313 329 325 315 301 261 254 206 201 176 144 167 150 48 99 138 50 339 291 292 297 304 289 295 298 304 24 338 307 317 316 47 268 147 224 107 147 191 165 188 176 212 245 268 255 272 297 243 222 244 250 250 246 256 263 265 258 253 253 256 255 255 254 254 249 252 255 258 265 270 274 279 281 280 273 271 283 289 290 290 288 287 296
318 311 316 325 317 330 358 351 220 223 247 200 120 109 124 131 351 166 205 199 236 212 227 234 244 305 323 323 357 7 73 347 342 28 333 3 185 304 62 50 69 131 304 7 271 242 272 244 327 276 245 55 233 241 251 268 276 264 255 254 252 250 251 251 249 248 249 250 251 245 244 250 251 251 254 258 261 265 268 268 271 277 281 283 287 287 284
318 313 310 301 53 218 217 218 247 240 254 359 76 108 114 137 162 187 216 215 262 301 298 297 268 294 300 333 343 356 327 274 247 277 40 276 137 137 241 175 266 187 108 149 252 261 246 254 186 258 40 287 257 247 272 276 269 265 263 256 249 242 238 235 241 238 238 241 241 241 241 237 237 243 244 244 246 250 258 264 267 271 274 275 275 269 258
316 305 155 167 210 253 244 236 164 6 24 72 107 117 147 169 77 347 179 236 190 246 267 310 281 277 231 288 262 266 312 356 351 324 79 1 338 193 193 162 147 121 121 251 266 250 244 177 234 289 281 293 298 293 294 309 311 309 296 262 241 234 227 228 225 225 229 225 226 234 234 236 237 236 240 238 238 245 249 253 261 265 262 255 251 242 242
166 218 189 193 217 240 202 61 35 113 102 109 128 133 164 214 228 177 195 225 191 199 221 220 250 243 209 264 325 21 301 308 338 347 348 157 280 209 159 199 223 163 277 285 258 188 162 117 255 275 277 274 296 337 345 334 346 357 14 18 261 205 204 208 202 207 214 218 225 222 222 223 227 228 228 230 235 240 242 252 262 255 241 228 266 146 109
167 176 221 242 263 19 359 37 119 149 164 121 217 261 214 191 230 223 183 154 166 217 167 216 322 86 207 223 297 151 89 318 319 351 358 56 351 22 151 334 120 229 321 209 211 165 300 319 315 277 330 346 4 356 347 359 11 13 14 24 34 25 183 177 187 197 200 210 212 213 215 215 215 218 219 225 224 227 235 248 230 174 131 105 82 67 70
194 216 274 151 18 42 104 116 141 173 214 266 203 262 322 166 283 356 313 296 310 105 159 335 342 315 357 339 344 333 150 279 335 346 341 339 118 339 309 326 44 112 6 17 4 154 11 350 328 303 17 18 18 3 1 8 15 13 16 19 23 31 33 57 181 188 206 212 218 221 217 226 221 216 213 210 208 207 218 196 189 152 107 91 85 67 65
337 331 327 1 17 350 110 146 180 223 259 271 252 239 319 352 13 12 2 328 14 24 328 315 351 355 348 326 280 337 93 188 207 223 269 327 151 201 332 3 261 11 15 17 343 353 353 319 313 18 22 359 9 8 6 14 13 14 16 19 27 27 35 42 33 32 182 193 189 214 199 195 199 212 198 176 177 191 159 134 109 90 85 86 77 69 62
338 303 322 293 290 287 290 209 222 255 333 359 327 315 326 348 332 26 2 1 7 350 299 315 343 338 340 269 311 321 143 167 259 107 256 339 336 27 11 10 347 26 33 353 315 354 330 17 8 30 18 12 13 19 23 22 17 18 18 22 27 26 35 40 35 27 23 39 86 74 56 71 90 82 98 98 90 92 98 93 83 78 74 71 71 73 65
254 234 259 285 238 215 226 317 354 332 8 328 353 308 341 353 15 346 13 38 10 345 324 126 179 215 264 74 287 282 21 89 304 257 14 24 200 217 27 32 3 34 8 310 357 335 19 17 25 32 19 18 13 21 27 30 25 23 25 27 27 29 33 40 41 37 34 48 62 63 60 66 65 51 56 71 75 70 64 64 71 70 70 67 62 60 64
231 229 240 270 299 358 299 351 290 15 8 345 7 359 351 0 6 0 358 8 347 2 1 0 3 350 1 57 292 337 117 251 157 314 60 65 38 33 35 34 34 22 289 23 349 22 10 30 30 18 21 27 28 24 23 28 30 30 30 25 28 32 34 34 32 34 35 43 45 42 43 48 52 48 50 48 49 56 58 57 60 64 64 65 63 58 57
286 314 324 309 320 313 29 350 300 38 360 9 354 10 21 4 351 2 356 4 343 323 334 349 355 355 13 0 255 218 315 28 265 12 41 39 58 36 37 37 29 30 26 19 359 344 3 30 15 14 15 25 31 31 28 27 32 39 36 34 32 33 34 38 38 37 35 38 38 40 42 43 47 48 49 50 50 48 50 49 50 59 61 64 65 65 59
10 325 332 348 305 314 41 65 343 3 29 5 8 9 1 25 11 356 10 336 317 340 348 5 351 319 11 19 8 13 5 27 38 41 38 51 52 48 38 75 39 39 41 31 23 21 8 350 1 16 13 15 27 35 34 35 35 39 44 43 37 35 37 39 40 42 43 45 41 41 41 42 41 44 45 45 48 48 44 43 38 43 52 58 58 58 58
311 309 291 266 330 7 33 33 12 24 4 11 13 10 8 2 5 3 0 350 345 350 345 337 212 319 359 16 17 50 29 28 38 24 14 49 44 67 29 37 42 31 30 25 21 4 357 346 351 6 360 6 29 33 33 37 37 44 49 49 47 43 40 40 40 41 40 40 44 42 43 43 43 42 42 45 44 43 38 36 36 38 44 52 50 54 58
344 283 303 12 1 3 16 21 5 17 34 19 17 18 8 2 1 6 359 348 343 345 354 339 353 358 27 55 34 36 26 19 41 42 21 47 55 36 40 44 47 36 22 16 16 343 343 337 356 16 11 11 27 42 32 35 37 35 36 44 49 47 43 40 42 42 40 39 41 42 40 39 41 43 44 45 45 41 38 38 36 36 38 40 44 46 52
34 0 341 17 24 2 9 12 357 24 18 13 15 11 0 10 9 5 358 345 352 352 356 16 354 335 40 31 39 32 39 9 39 34 29 41 44 38 40 38 22 43 30 356 330 342 336 355 7 13 23 17 19 32 43 45 37 39 39 43 43 46 45 45 44 42 42 41 41 42 42 38 35 36 41 42 45 48 47 44 40 40 38 40 40 43 44
5 57 22 358 16 23 344 15 7 18 19 15 7 16 2 9 359 10 359 347 350 352 7 38 32 15 20 356 53 47 45 30 38 22 34 43 37 43 40 57 31 35 10 353 355 360 10 7 17 20 14 21 25 26 25 33 43 46 46 51 51 49 49 49 48 43 41 40 39 40 42 39 34 31 34 39 46 50 50 48 47 46 44 43 44 41 44
359 19 58 37 16 23 357 16 4 5 15 18 8 11 359 14 1 359 354 347 349 7 31 15 21 32 26 25 11 41 47 28 49 46 39 38 16 35 23 357 330 335 347 330 307 6 26 8 19 31 30 23 13 23 29 30 33 38 45 48 51 54 56 53 52 50 47 43 40 40 40 39 36 34 33 37 43 50 55 55 52 54 55 53 49 48 46
359 29 29 30 26 29 22 12 4 7 19 15 18 10 358 14 7 1 342 353 7 12 18 18 16 27 34 33 26 14 41 39 48 35 53 55 26 30 29 6 355 0 336 318 307 14 26 16 18 24 28 23 18 15 23 26 26 42 42 33 36 41 53 60 59 56 56 52 47 45 45 43 40 39 38 38 37 40 44 49 48 52 56 59 59 57 56